Weather History for Sitka, AK

Change the Weather History Date:

Sunday, January 12, 2014

  Actual Average Record
Temperature  
Mean Temperature 38 °F -  
Max Temperature 43 °F 34 °F 52 °F (2015)
Min Temperature 34 °F 27 °F 6 °F (1953)
Degree Days  
Heating Degree Days 26    
Moisture  
Dew Point 35 °F    
Average Humidity 82    
Maximum Humidity 93    
Minimum Humidity 68    
Precipitation  
Precipitation 0.24 in - - ()
Sea Level Pressure  
Sea Level Pressure 29.25 in    
Wind  
Wind Speed 16 mph (WSW)    
Max Wind Speed 26 mph    
Max Gust Speed 37 mph    
Visibility 8 miles    
Events Rain , Snow    
Averages and records for this station are not official NWS values.
T = Trace of Precipitation, MM = Missing Value Source: NWS Daily Summary

Daily Weather History Graph

Daily Weather History Graph

Search for Another Location

Airport:

Trip Planner

Search our weather history database for the weather conditions in past years. The results will help you decide how hot, cold, wet, or windy it might be!

Date:

Astronomy

Jan. 12, 2014 Rise Set
Actual Time 8:31 AM AKST 3:48 PM AKST
Civil Twilight 7:44 AM AKST 4:35 PM AKST
Nautical Twilight 6:55 AM AKST 5:24 PM AKST
Astronomical Twilight 6:09 AM AKST 6:10 PM AKST
Moon 1:26 PM AKST (1/12) 5:31 AM AKST (1/12)
Length of Visible Light 8h 50m
Length of Day
7h 16m
Waxing Gibbous, 90% of the Moon is Illuminated
Jan 12
Waxing Gibbous
Jan 15
Full
Jan 23
Last Quarter
Jan 30
New
Feb 6
First Quarter

Hourly Weather History & Observations

Time (AKST) Temp. Windchill Dew Point Humidity Pressure Visibility Wind Dir Wind Speed Gust Speed Precip Events Conditions
12:53 AM 34.0 °F 25.0 °F 32.0 °F 92% 29.26 in 7.0 mi ESE 12.7 mph - 0.00 in Snow Light Snow
1:53 AM 35.1 °F 25.5 °F 30.9 °F 85% 29.21 in 7.0 mi ESE 15.0 mph - 0.00 in Snow Light Snow
2:53 AM 36.0 °F 26.0 °F 30.9 °F 82% 29.15 in 7.0 mi ESE 17.3 mph 24.2 mph 0.00 in Snow Light Snow
3:53 AM 37.0 °F 26.7 °F 32.0 °F 82% 29.11 in 9.0 mi ESE 19.6 mph 28.8 mph 0.00 in Snow Light Snow
4:05 AM 36.0 °F 25.3 °F 32.0 °F 86% 29.09 in 10.0 mi ESE 19.6 mph 26.5 mph 0.01 in Rain , Snow Light Rain
4:49 AM 35.6 °F 26.6 °F 33.8 °F 93% 29.08 in 2.5 mi ESE 13.8 mph 25.3 mph 0.07 in Rain , Snow Rain
4:53 AM 36.0 °F 27.1 °F 33.1 °F 89% 29.08 in 2.5 mi East 13.8 mph 25.3 mph 0.09 in Rain , Snow Rain
5:01 AM 36.0 °F 26.3 °F 33.1 °F 89% 29.08 in 7.0 mi East 16.1 mph - 0.00 in Rain , Snow Rain
5:10 AM 36.0 °F 29.0 °F 33.1 °F 89% 29.07 in 9.0 mi ENE 9.2 mph - 0.00 in Snow Light Snow
5:53 AM 42.1 °F 33.3 °F 39.0 °F 89% 29.08 in 10.0 mi WSW 19.6 mph 31.1 mph 0.03 in   Overcast
6:53 AM 41.0 °F 32.5 °F 37.0 °F 86% 29.08 in 8.0 mi WSW 17.3 mph 29.9 mph 0.00 in Rain Light Rain
7:35 AM 43.0 °F 34.0 °F 37.0 °F 80% 29.09 in 10.0 mi WSW 21.9 mph 27.6 mph 0.01 in   Overcast
7:53 AM 42.1 °F 33.3 °F 37.0 °F 82% 29.10 in 9.0 mi WSW 19.6 mph 26.5 mph 0.01 in   Overcast
8:02 AM 42.1 °F 33.6 °F 37.0 °F 82% 29.11 in 7.0 mi WSW 18.4 mph 32.2 mph 0.01 in Rain Light Rain
8:29 AM 42.1 °F 32.6 °F 36.0 °F 79% 29.11 in 9.0 mi WSW 23.0 mph 28.8 mph 0.01 in   Overcast
8:36 AM 43.0 °F 34.2 °F 36.0 °F 76% 29.12 in 8.0 mi WSW 20.7 mph 31.1 mph 0.01 in   Overcast
8:49 AM 42.8 °F 33.8 °F 35.6 °F 76% 29.12 in 8.0 mi WSW 21.9 mph 31.1 mph 0.01 in   Overcast
8:53 AM 42.1 °F 33.3 °F 36.0 °F 79% 29.13 in 6.0 mi WSW 19.6 mph 29.9 mph 0.01 in Rain Light Rain
9:53 AM 43.0 °F 34.8 °F 35.1 °F 74% 29.14 in 7.0 mi WSW 18.4 mph 29.9 mph 0.00 in Rain Light Rain
10:53 AM 43.0 °F 34.2 °F 36.0 °F 76% 29.17 in 6.0 mi WSW 20.7 mph - 0.00 in Rain Light Rain
11:53 AM 43.0 °F 34.0 °F 35.1 °F 74% 29.20 in 8.0 mi West 21.9 mph 31.1 mph 0.02 in Rain Light Rain
12:53 PM 43.0 °F 33.1 °F 33.1 °F 68% 29.23 in 9.0 mi West 26.5 mph 33.4 mph 0.00 in   Mostly Cloudy
1:53 PM 42.1 °F 34.9 °F 35.1 °F 76% 29.26 in 10.0 mi West 13.8 mph - 0.00 in   Overcast
2:40 PM 41.0 °F 35.2 °F 36.0 °F 82% 29.28 in 10.0 mi West 9.2 mph - 0.00 in Rain Light Rain
2:53 PM 39.9 °F 31.1 °F 36.0 °F 86% 29.29 in 4.0 mi NW 17.3 mph 26.5 mph 0.02 in Rain Light Rain
3:53 PM 39.9 °F 35.8 °F 35.1 °F 83% 29.31 in 10.0 mi WNW 5.8 mph - 0.00 in   Overcast
4:06 PM 39.9 °F 35.8 °F 35.1 °F 83% 29.32 in 10.0 mi Variable 5.8 mph - N/A   Overcast
4:34 PM 39.0 °F 33.4 °F 35.1 °F 86% 29.33 in 10.0 mi West 8.1 mph - 0.01 in   Overcast
4:50 PM 39.2 °F 30.8 °F 35.6 °F 87% 29.34 in 10.0 mi West 15.0 mph - 0.01 in Rain Light Rain
4:53 PM 39.0 °F 31.4 °F 35.1 °F 86% 29.34 in 10.0 mi West 12.7 mph - 0.01 in Rain Light Rain
5:30 PM 39.9 °F - 35.1 °F 83% 29.35 in 10.0 mi Calm Calm - 0.01 in   Overcast
5:53 PM 42.1 °F 33.9 °F 35.1 °F 76% 29.35 in 10.0 mi West 17.3 mph 21.9 mph 0.01 in   Overcast
6:22 PM 39.0 °F 31.4 °F 34.0 °F 82% 29.37 in 7.0 mi West 12.7 mph - 0.01 in Rain Light Rain
6:30 PM 39.0 °F 32.8 °F 35.1 °F 86% 29.37 in 10.0 mi West 9.2 mph - 0.01 in   Overcast
6:53 PM 39.9 °F 36.7 °F 35.1 °F 83% 29.38 in 10.0 mi NW 4.6 mph - 0.01 in   Overcast
7:53 PM 41.0 °F 31.6 °F 34.0 °F 76% 29.41 in 9.0 mi West 20.7 mph 29.9 mph 0.00 in Rain Light Rain
8:53 PM 39.9 °F 29.7 °F 35.1 °F 83% 29.45 in 9.0 mi WSW 23.0 mph 31.1 mph 0.01 in Rain Light Rain
9:53 PM 39.9 °F 29.5 °F 35.1 °F 83% 29.50 in 5.0 mi West 24.2 mph 35.7 mph 0.00 in Rain Light Rain
10:26 PM 39.0 °F 28.0 °F 34.0 °F 82% 29.53 in 7.0 mi WNW 25.3 mph 36.8 mph 0.01 in Rain Light Rain
10:34 PM 41.0 °F 32.8 °F 33.1 °F 73% 29.52 in 10.0 mi West 16.1 mph 33.4 mph 0.01 in   Mostly Cloudy
10:53 PM 39.9 °F 30.5 °F 34.0 °F 79% 29.55 in 7.0 mi West 19.6 mph 28.8 mph 0.01 in Rain Light Rain
11:53 PM 39.9 °F 30.8 °F 35.1 °F 83% 29.60 in 10.0 mi West 18.4 mph - 0.01 in   Mostly Cloudy